Tracking 20241 objects as of 29-Jan-2020
HD Live streaming from Space Station
objects crossing your sky now

COSMOS 249 DEB

Track COSMOS 249 DEB now!
10-day predictions


NORAD ID: 19317
Int'l Code: 1968-091DH
Perigee: 575.0 km
Apogee: 1,679.6 km
Inclination: 62.9 °
Period: 107.7 minutes
Semi major axis: 7498 km
RCS: 0.0014 m2 (small)
Launch date: October 20, 1968
Source: Commonwealth of Independent States (former USSR) (CIS)
Launch site: TYURATAM MISSILE AND SPACE COMPLEX (TTMTR)

Note: This is SATELLITE DEBRIS
aabbcc
Your satellite tracking list
Your tracking list is empty




NASA's NSSDC Master Catalog

Two Line Element Set (TLE):
1 19317U 68091DH  20028.42170189 -.00000095 +00000-0 +82858-5 0  9990
2 19317 062.8513 276.6707 0736550 306.7366 046.8151 13.37091617535095
Source of the keplerian elements: AFSPC